Погода в Манандзари

Мадагаскар     21°13′58″S   48°21′06″E
темп.,
°C
ветер,
м/с
пор.,
м/с
влажн.,
%
обл.,
%
осадки,
мм/ч
давл.,
гПа
погр.,
м
1 марта, пн
пн100:00+25всв249429 6.9 1011145
03:00+24ссв139365 8.4 1011157
06:00+24зсз1196100 0.1 101164
09:00+27с138087 0.6 1013613
12:00+31в235823 0.8 10111137
15:00+30в446415 0.8 1010892
18:00+27в36823 0.0 1011634
21:00+25в258824 0.4 1014273
2 марта, вт
вт200:00+24вюв2491100 0.9 1014236
03:00+24юв2491100 1.3 1013205
06:00+23вюв128849 0.2 1013211
09:00+28в226524 0.3 1014956
12:00+29в335742 0.1 10121221
15:00+29в346024 0.1 10111142
18:00+25в23740 0.0 1012222
21:00+24св02770 0.0 1014246
3 марта, ср
ср300:00+22з228644 0.0 101360
03:00+22з228972 0.0 101261
06:00+21з22915 0.0 101267
09:00+29з01612 0.0 1012652
12:00+30вюв325822 0.0 10101010
15:00+29вюв446712 0.0 1009865
18:00+26в248129 0.0 1009226
21:00+24с128658 0.0 1011143
4 марта, чт
чт400:00+23сз1190100 0.0 101062
03:00+23сз119288 0.0 100954
06:00+22сз119373 0.0 100957
09:00+28ссв356578 0.0 1009937
12:00+31всв445944 0.0 10071200
15:00+29всв456430 0.0 1006947
18:00+26всв267580 0.0 1007411
21:00+25св257990 0.0 1009264
5 марта, пт
пт500:00+25св1386100 0.3 1009178
03:00+24св1394100 4.2 1008128
06:00+24с1295100 6.8 1008176
09:00+25ссв1494100 11.3 1009218
12:00+27св3691100 5.2 1008714
15:00+25св1596100 13.9 1006217
18:00+24всв1297100 10.1 1006116
21:00+24всв1298100 18.6 1007118